Location: Charbonni�res
(45.9952°N, 2.9982°E)
Time: 17:30:32
(UTC+00:00)

CENTAUR R/B - Pass Details

Date: 29 November 2020
Orbit: 750 x 1438 km, 63.4° (Epoch: 11 January)

Event Time Altitude Azimuth Distance (km) Brightness Sun altitude
Exits shadow 05:48:51 16° 278° (W) 3,000 4.4 -13.2°
Maximum altitude 05:51:43 19° 254° (WSW) 2,849 4.4 -12.8°
Drops below altitude 10° 05:57:21 10° 214° (SW) 3,538 5.3 -11.8°
Sets 06:01:22 0° 198° (SSW) 4,509 6.0 -11.2°
